Presque Isle, ME

9:34 AM EST on February 24, 2018 (GMT -0500)
Northern Maine Regional At Presque Isle

Weather History for KPQI - July, 2013

Change the Weather History Date:

Monday, July 29, 2013

  Actual Average Record
Temperature  
Mean Temperature 64 °F -  
Max Temperature 69 °F 76 °F 91 °F (1931)
Min Temperature 59 °F 55 °F 41 °F (2017)
Degree Days  
Heating Degree Days 1    
Growing Degree Days 14 (Base 50)    
Moisture  
Dew Point 57 °F    
Average Humidity 82    
Maximum Humidity 88    
Minimum Humidity 73    
Precipitation  
Precipitation 0.06 in - - ()
Sea Level Pressure  
Sea Level Pressure 29.98 in    
Wind  
Wind Speed 5 mph (SE)    
Max Wind Speed 8 mph    
Max Gust Speed -    
Visibility 10 miles    
Events      
Averages and records for this station are not official NWS values.
T = Trace of Precipitation, MM = Missing Value Source: NWS Daily Summary

Daily Weather History Graph

Daily Weather History Graph

Search for Another Location

Airport or City:

Trip Planner

Search our weather history database for the weather conditions in past years. The results will help you decide how hot, cold, wet, or windy it might be!

Date:

Astronomy

Jul. 29, 2013 Rise Set
Actual Time 5:09 AM EDT 8:07 PM EDT
Civil Twilight 4:33 AM EDT 8:42 PM EDT
Nautical Twilight 3:47 AM EDT 9:28 PM EDT
Astronomical Twilight 2:52 AM EDT 10:22 PM EDT
Moon 11:29 PM EDT (7/29) 1:20 PM EDT (7/29)
Length of Visible Light 16h 09m
Length of Day
14h 58m
Waning Gibbous, 51% of the Moon is Illuminated
Jul 29
Waning Gibbous
Jul 29
Last Quarter
Aug 6
New
Aug 14
First Quarter
Aug 20
Full

Hourly Weather History & Observations

Time (EDT) Temp. Dew Point Humidity Pressure Visibility Wind Dir Wind Speed Gust Speed Precip Events Conditions
12:15 AM 64.4 °F 57.2 °F 77% 30.00 in 10.0 mi ESE 6.9 mph - N/A   Overcast
12:35 AM 62.6 °F 57.2 °F 82% - 10.0 mi SE 5.8 mph - N/A   Overcast
12:55 AM 62.6 °F 57.2 °F 82% 30.00 in 10.0 mi ESE 3.5 mph - N/A   Overcast
1:15 AM 62.6 °F 57.2 °F 82% - 10.0 mi ESE 8.1 mph - N/A   Overcast
1:35 AM 62.6 °F 55.4 °F 77% - 10.0 mi ESE 5.8 mph - N/A   Overcast
1:55 AM 62.6 °F 55.4 °F 77% 29.99 in 10.0 mi SE 6.9 mph - N/A   Overcast
2:15 AM 62.6 °F 55.4 °F 77% 29.98 in 10.0 mi ESE 8.1 mph - N/A   Overcast
2:35 AM 60.8 °F 55.4 °F 82% 29.98 in 10.0 mi ESE 8.1 mph - N/A   Overcast
2:55 AM 60.8 °F 53.6 °F 77% 29.98 in 10.0 mi SE 8.1 mph - N/A   Overcast
3:15 AM 60.8 °F 53.6 °F 77% 29.98 in 9.0 mi ESE 3.5 mph - N/A   Overcast
3:35 AM 60.8 °F 55.4 °F 82% 29.99 in 10.0 mi ESE 4.6 mph - N/A   Overcast
3:55 AM 60.8 °F 55.4 °F 82% 29.98 in 10.0 mi ESE 3.5 mph - N/A   Overcast
4:15 AM 60.8 °F 55.4 °F 82% - 10.0 mi Calm Calm - N/A   Overcast
4:35 AM 59.0 °F 55.4 °F 88% 29.98 in 10.0 mi East 4.6 mph - 0.01 in   Overcast
4:55 AM 59.0 °F 55.4 °F 88% 29.98 in 10.0 mi East 4.6 mph - 0.02 in   Overcast
5:15 AM 59.0 °F 55.4 °F 88% 29.98 in 10.0 mi ESE 4.6 mph - 0.01 in   Overcast
5:35 AM 59.0 °F 55.4 °F 88% 29.98 in 9.0 mi ESE 5.8 mph - 0.02 in   Overcast
5:55 AM 59.0 °F 55.4 °F 88% 29.98 in 10.0 mi East 3.5 mph - 0.03 in   Overcast
6:15 AM 59.0 °F 55.4 °F 88% 29.98 in 10.0 mi Calm Calm - N/A   Overcast
6:35 AM 59.0 °F 55.4 °F 88% 29.98 in 10.0 mi Calm Calm - N/A   Overcast
6:55 AM 59.0 °F 55.4 °F 88% - 10.0 mi Calm Calm - N/A   Overcast
7:15 AM 59.0 °F 55.4 °F 88% 29.98 in 10.0 mi Calm Calm - N/A   Overcast
7:35 AM 59.0 °F 55.4 °F 88% 29.99 in 10.0 mi SSE 3.5 mph - N/A   Overcast
7:55 AM 59.0 °F 55.4 °F 88% - 8.0 mi SSE 4.6 mph - N/A   Overcast
8:15 AM 59.0 °F 55.4 °F 88% 29.98 in 5.0 mi East 3.5 mph - N/A   Overcast
8:35 AM 59.0 °F 55.4 °F 88% 29.99 in 5.0 mi SSE 3.5 mph - N/A   Overcast
8:55 AM 59.0 °F 55.4 °F 88% 29.98 in 10.0 mi ESE 3.5 mph - N/A   Overcast
9:15 AM 60.8 °F 55.4 °F 82% 29.99 in 8.0 mi Calm Calm - N/A   Overcast
9:35 AM 60.8 °F 55.4 °F 82% 29.99 in 10.0 mi Calm Calm - N/A   Overcast
9:55 AM 60.8 °F 55.4 °F 82% 29.98 in 10.0 mi South 4.6 mph - N/A   Overcast
10:15 AM 60.8 °F 55.4 °F 82% 29.98 in 10.0 mi SSE 6.9 mph - N/A   Overcast
10:35 AM 62.6 °F 57.2 °F 82% - 10.0 mi SE 4.6 mph - N/A   Overcast
10:55 AM 62.6 °F 55.4 °F 77% - 10.0 mi Calm Calm - N/A   Overcast
11:15 AM 62.6 °F 57.2 °F 82% - 10.0 mi SSE 6.9 mph - N/A   Overcast
11:35 AM 62.6 °F 57.2 °F 82% 29.98 in 10.0 mi SSE 6.9 mph - N/A   Overcast
11:55 AM 62.6 °F 57.2 °F 82% 29.97 in 10.0 mi SSE 6.9 mph - N/A   Overcast
12:15 PM 64.4 °F 57.2 °F 77% 29.97 in 10.0 mi SE 6.9 mph - N/A   Overcast
12:35 PM 64.4 °F 57.2 °F 77% 29.96 in 10.0 mi SE 5.8 mph - N/A   Overcast
12:55 PM 64.4 °F 57.2 °F 77% 29.97 in 10.0 mi ESE 8.1 mph - N/A   Overcast
1:15 PM 66.2 °F 59.0 °F 78% 29.96 in 10.0 mi SSE 4.6 mph - N/A   Overcast
1:35 PM 66.2 °F 59.0 °F 78% 29.97 in 10.0 mi South 5.8 mph - N/A   Overcast
1:55 PM 66.2 °F 60.8 °F 83% 29.96 in 10.0 mi SSE 3.5 mph - N/A   Overcast
2:15 PM 68.0 °F 60.8 °F 78% 29.96 in 10.0 mi SE 4.6 mph - N/A   Overcast
2:35 PM 68.0 °F 60.8 °F 78% - 10.0 mi ESE 5.8 mph - N/A   Overcast
2:55 PM 68.0 °F 60.8 °F 78% 29.96 in 10.0 mi SSE 5.8 mph - 0.01 in   Overcast
3:15 PM 69.8 °F 60.8 °F 73% 29.95 in 10.0 mi ESE 4.6 mph - N/A   Overcast
3:35 PM 69.8 °F 60.8 °F 73% 29.95 in 10.0 mi SE 5.8 mph - N/A   Overcast
3:55 PM 69.8 °F 60.8 °F 73% 29.95 in 10.0 mi SE 4.6 mph - N/A   Overcast